Date String (YYYY-MM-DD hh:mm:ss) UTC,Instrument flags,Ambient pressure (hPa),Sample flow (lpm),Bypass flow (lpm),Sample temperature (°C),Ambient temperature (°C),ASC tube jacket temperature (°C),LED temperature (°C),Box temperature (°C),Sample RH (%),Span deviation,Mass concentration (μg/m³),Mass concentration (μg/m³),Mass concentration (μg/m³)
DateTimeUTC,F1_M11,P_M11,Q1_M11,Q2_M11,T1_M11,T2_M11,T3_M11,T4_M11,T5_M11,U1_M11,ZSPAN_M11,X2_M11,X0_M11,X1_M11
2022-04-27 07:00:00,,0823.0,5.01,0.00,29.6,28.7,00.0,38.5,31.3,05.8,0002.9,0011.69,0030.64,0005.68
2022-04-27 07:01:00,,0823.0,5.00,0.00,29.6,28.7,00.0,38.5,31.3,05.8,0002.6,0011.70,0031.04,0005.67
2022-04-27 07:02:00,,0823.0,5.00,0.00,29.6,28.7,00.0,38.5,31.3,05.9,0002.5,0011.68,0030.94,0005.63
2022-04-27 07:03:00,,0823.0,5.01,0.00,29.6,28.7,00.0,38.5,31.3,05.8,0001.7,0011.75,0031.30,0005.63
2022-04-27 07:04:00,,0822.9,4.99,0.00,29.6,28.7,00.0,38.5,31.3,05.8,0001.9,0011.74,0031.54,0005.63
2022-04-27 07:05:00,,0823.0,4.98,0.00,29.6,28.7,00.0,38.5,31.3,05.8,0001.5,0011.61,0032.08,0005.62
2022-04-27 07:06:00,,0823.0,5.00,0.00,29.6,28.7,00.0,38.5,31.3,05.7,0000.9,0011.45,0031.91,0005.58
2022-04-27 07:07:00,,0823.0,5.01,0.00,29.6,28.7,00.0,38.5,31.3,05.7,0000.7,0011.40,0031.86,0005.58
2022-04-27 07:08:00,,0823.0,5.00,0.00,29.6,28.7,00.0,38.5,31.3,05.8,0001.5,0011.39,0031.93,0005.60
2022-04-27 07:09:00,,0822.9,4.98,0.00,29.6,28.7,00.0,38.5,31.3,06.0,0002.1,0011.52,0032.19,0005.62
2022-04-27 07:10:00,,0822.9,5.01,0.00,29.6,28.7,00.0,38.5,31.3,06.0,0001.8,0011.59,0032.13,0005.63
2022-04-27 07:11:00,,0823.0,5.00,0.00,29.6,28.6,00.0,38.5,31.3,06.0,0001.5,0011.61,0030.79,0005.63
2022-04-27 07:12:00,,0822.9,4.99,0.00,29.6,28.6,00.0,38.5,31.3,06.1,0001.8,0011.56,0030.44,0005.63
2022-04-27 07:13:00,,0822.9,5.00,0.00,29.6,28.6,00.0,38.5,31.3,06.1,0002.2,0011.56,0030.68,0005.64
2022-04-27 07:14:00,,0822.9,5.02,0.00,29.6,28.6,00.0,38.5,31.3,05.9,0002.7,0011.66,0030.80,0005.65
2022-04-27 07:15:00,,0823.0,4.99,0.00,29.6,28.6,00.0,38.5,31.2,05.9,0003.0,0011.61,0030.85,0005.66
2022-04-27 07:16:00,,0823.0,5.01,0.00,29.6,28.6,00.0,38.5,31.2,05.8,0003.2,0011.62,0030.34,0005.68
2022-04-27 07:17:00,,0822.9,5.01,0.00,29.6,28.5,00.0,38.5,31.2,05.8,0003.5,0011.75,0030.91,0005.70
2022-04-27 07:18:00,,0822.9,4.98,0.00,29.6,28.5,00.0,38.5,31.2,05.8,0003.0,0011.90,0030.84,0005.71
2022-04-27 07:19:00,,0822.8,5.00,0.00,29.6,28.5,00.0,38.5,31.3,05.8,0003.1,0011.96,0031.22,0005.70
2022-04-27 07:20:00,,0822.8,5.01,0.00,29.5,28.5,00.0,38.5,31.3,05.8,0002.5,0011.92,0030.87,0005.70
2022-04-27 07:21:00,,0822.8,4.99,0.00,29.5,28.6,00.0,38.5,31.2,05.9,0002.8,0011.91,0030.95,0005.72
2022-04-27 07:22:00,,0822.9,4.99,0.00,29.5,28.6,00.0,38.5,31.2,05.8,0002.6,0011.90,0031.38,0005.71
2022-04-27 07:23:00,,0822.8,5.02,0.00,29.5,28.6,00.0,38.5,31.2,05.9,0002.7,0012.02,0031.64,0005.73
2022-04-27 07:24:00,,0822.8,4.99,0.00,29.5,28.6,00.0,38.5,31.2,05.9,0002.7,0012.08,0031.30,0005.74
2022-04-27 07:25:00,,0822.9,4.99,0.00,29.5,28.6,00.0,38.5,31.2,05.8,0002.1,0012.11,0031.32,0005.76
2022-04-27 07:26:00,,0822.9,5.01,0.00,29.5,28.6,00.0,38.5,31.2,05.7,0002.0,0012.24,0031.25,0005.78
2022-04-27 07:27:00,,0822.9,5.02,0.00,29.5,28.6,00.0,38.5,31.2,05.8,0001.9,0012.24,0031.83,0005.80
2022-04-27 07:28:00,,0823.0,4.99,0.00,29.5,28.6,00.0,38.5,31.3,05.9,0001.3,0012.21,0031.17,0005.81
2022-04-27 07:29:00,,0823.0,4.99,0.00,29.5,28.6,00.0,38.5,31.3,06.0,0001.8,0012.26,0031.30,0005.85
2022-04-27 07:30:00,,0823.0,5.01,0.00,29.5,28.6,00.0,38.5,31.2,06.1,0002.1,0012.27,0030.92,0005.88
2022-04-27 07:31:00,,0823.0,4.98,0.00,29.5,28.6,00.0,38.5,31.2,06.2,0002.1,0012.35,0030.92,0005.90
2022-04-27 07:32:00,,0822.9,5.01,0.00,29.5,28.6,00.0,38.5,31.2,06.1,0001.3,0012.25,0030.42,0005.90
2022-04-27 07:33:00,,0822.9,5.01,0.00,29.5,28.6,00.0,38.5,31.2,06.0,0001.8,0012.28,0030.14,0005.94
2022-04-27 07:34:00,,0822.9,4.99,0.00,29.5,28.6,00.0,38.5,31.2,06.2,0001.9,0012.30,0029.81,0005.94
2022-04-27 07:35:00,,0822.9,4.99,0.00,29.5,28.6,00.0,38.5,31.2,06.2,0000.8,0012.32,0030.03,0005.95
2022-04-27 07:36:00,,0823.0,5.02,0.00,29.5,28.6,00.0,38.5,31.2,06.0,0000.6,0012.30,0030.54,0005.93
2022-04-27 07:37:00,,0823.0,4.99,0.00,29.5,28.6,00.0,38.5,31.2,06.0,0001.4,0012.32,0030.73,0005.91
2022-04-27 07:38:00,,0823.0,4.98,0.00,29.5,28.6,00.0,38.5,31.2,06.1,0002.2,0012.39,0029.85,0005.92
2022-04-27 07:39:00,,0822.9,5.02,0.00,29.5,28.6,00.0,38.5,31.2,06.1,0004.1,0012.53,0030.44,0005.93
2022-04-27 07:40:00,,0823.0,4.99,0.00,29.5,28.5,00.0,38.4,31.2,06.2,0003.9,0012.58,0032.30,0005.93
2022-04-27 07:41:00,,0823.0,5.01,0.00,29.5,28.5,00.0,38.4,31.2,06.0,0003.4,0012.65,0033.90,0005.92
2022-04-27 07:42:00,,0823.0,4.99,0.00,29.5,28.5,00.0,38.5,31.2,05.9,0003.5,0012.52,0034.98,0005.90
2022-04-27 07:43:00,,0822.9,5.01,0.00,29.5,28.5,00.0,38.5,31.1,06.0,0003.7,0012.54,0035.15,0005.90
2022-04-27 07:44:00,,0822.8,4.99,0.00,29.5,28.5,00.0,38.4,31.2,05.9,0003.8,0012.51,0035.05,0005.88
2022-04-27 07:45:00,,0823.0,5.00,0.00,29.4,28.5,00.0,38.4,31.2,05.9,0003.2,0012.47,0035.51,0005.88
2022-04-27 07:46:00,,0823.0,5.01,0.00,29.4,28.5,00.0,38.4,31.1,05.9,0003.7,0012.51,0036.09,0005.89
2022-04-27 07:47:00,,0823.0,4.99,0.00,29.4,28.5,00.0,38.4,31.1,05.9,0004.6,0012.54,0036.17,0005.90
2022-04-27 07:48:00,,0822.9,4.98,0.00,29.4,28.5,00.0,38.4,31.2,05.8,0004.5,0012.58,0036.25,0005.91
2022-04-27 07:49:00,,0822.9,5.01,0.00,29.4,28.5,00.0,38.4,31.1,05.8,0004.6,0012.58,0036.71,0005.90
2022-04-27 07:50:00,,0823.0,4.99,0.00,29.4,28.5,00.0,38.4,31.1,06.0,0005.2,0012.56,0037.16,0005.90
2022-04-27 07:51:00,,0823.1,4.99,0.00,29.4,28.5,00.0,38.4,31.1,06.0,0005.4,0012.58,0036.80,0005.88
2022-04-27 07:52:00,,0823.1,5.01,0.00,29.4,28.5,00.0,38.4,31.1,06.1,0005.8,0012.46,0035.30,0005.85
2022-04-27 07:53:00,,0823.0,4.99,0.00,29.4,28.5,00.0,38.4,31.1,06.0,0006.2,0012.46,0033.48,0005.83
2022-04-27 07:54:00,,0823.0,4.99,0.00,29.4,28.5,00.0,38.4,31.1,06.0,0005.1,0012.53,0033.30,0005.79
2022-04-27 07:55:00,,0823.0,5.01,0.00,29.4,28.5,00.0,38.4,31.1,06.1,0005.0,0012.61,0033.53,0005.78
2022-04-27 07:56:00,,0823.0,4.99,0.00,29.4,28.5,00.0,38.4,31.1,06.3,0004.8,0012.62,0034.14,0005.75
2022-04-27 07:57:00,,0822.9,5.01,0.00,29.4,28.5,00.0,38.4,31.1,06.2,0005.2,0012.64,0033.65,0005.74
2022-04-27 07:58:00,,0822.9,5.01,0.00,29.4,28.4,00.0,38.4,31.0,06.0,0005.2,0012.53,0034.03,0005.70
2022-04-27 07:59:00,,0822.9,4.98,0.00,29.4,28.4,00.0,38.4,31.1,06.0,0005.2,0012.51,0033.93,0005.70
